Probability
22 22 20 18 20 21 20 18 19 19 16 14 14 15 18 21 22 22 20 19 20 20 18 15 13 12 11 10 8 7 7 7 6 6 6 8 9 8 7 6 6 6 5
22 22 19 17 17 20 21 21 22 22 19 16 16 16 17 19 20 20 19 18 19 19 17 15 14 13 12 11 10 9 9 10 9 7 6 7 8 6 5 5 5 5 4
21 21 20 18 17 19 21 23 25 26 23 19 18 18 17 16 17 17 17 17 17 17 16 15 14 13 13 12 12 11 11 12 13 10 7 7 6 4 4 5 4 5 5
18 19 20 20 20 20 20 22 24 24 22 18 17 18 17 15 14 15 16 18 18 17 16 16 14 13 13 13 12 11 11 12 14 12 8 6 5 5 6 5 5 5 6
15 17 18 21 22 22 21 20 20 20 17 16 16 18 18 15 14 15 16 18 20 20 18 17 15 13 12 11 10 9 9 11 12 12 9 6 5 6 6 5 4 5 5
15 15 17 20 22 22 21 19 18 18 16 15 16 19 19 17 15 13 14 18 20 20 19 17 14 11 10 9 7 5 6 7 9 10 8 6 6 6 6 5 4 5 6
16 15 16 19 21 21 20 19 20 19 18 16 17 19 20 18 13 8 9 16 19 19 18 16 13 10 10 9 6 4 3 3 4 6 7 6 6 6 6 6 6 6 6
15 14 15 17 19 19 19 19 20 20 19 17 17 18 19 15 8 3 5 12 17 18 17 16 13 11 10 10 8 6 4 3 3 4 5 5 5 5 6 6 6 6 6
13 13 13 14 16 17 17 17 18 18 18 18 17 16 15 11 5 1 3 10 14 16 16 14 12 10 9 8 8 8 6 4 3 3 3 3 2 2 4 6 6 6 6
12 13 14 13 13 13 14 15 16 16 17 17 16 14 13 9 4 1 3 9 14 15 14 13 10 8 5 4 6 8 6 4 4 3 3 3 1 1 2 4 6 6 6
11 13 14 13 12 12 12 14 15 16 16 15 14 13 11 8 4 1 2 6 11 13 12 11 8 4 2 2 3 6 5 4 5 5 5 4 4 4 4 4 5 6 6
12 13 13 14 15 13 12 12 13 14 15 14 12 10 9 8 5 1 0 2 6 9 10 9 5 2 1 0 1 2 2 2 4 6 6 6 6 7 7 5 5 5 6
15 15 14 16 16 15 12 11 11 12 13 13 11 10 9 8 5 2 0 0 2 5 7 5 2 1 0 0 0 0 0 0 3 6 7 6 7 7 7 5 4 4 4
16 15 15 16 16 15 13 11 10 10 11 11 11 10 9 8 5 3 1 1 1 2 3 3 1 0 0 0 0 0 0 0 2 5 6 6 6 6 5 5 4 3 3
13 12 12 12 13 14 13 10 9 8 8 8 8 8 7 6 4 2 2 1 1 2 3 3 2 1 1 0 0 0 0 0 1 3 4 4 4 3 3 3 3 3 3
9 8 8 7 9 11 10 7 6 4 3 3 4 4 3 2 1 1 1 1 0 1 3 3 3 3 2 1 1 1 0 1 1 1 1 1 1 1 1 1 2 2 2
6 6 5 5 6 8 7 5 3 3 1 1 1 1 1 0 0 0 0 0 0 1 2 3 3 3 3 3 2 2 2 2 2 2 1 1 0 0 0 0 1 1 1
5 5 4 4 4 6 7 5 3 3 3 2 1 0 0 0 0 0 0 0 0 1 2 3 3 3 3 3 3 3 3 3 4 4 3 2 1 1 1 1 0 0 0
6 5 4 3 4 5 6 5 4 3 3 4 3 2 0 0 0 0 0 1 1 2 3 3 3 3 3 3 3 3 3 3 4 5 4 3 2 2 2 1 0 0 0
6 5 3 3 3 3 3 4 3 3 3 4 4 3 1 0 0 0 0 1 2 3 3 2 2 3 3 3 1 1 2 3 5 5 5 3 2 1 2 1 0 0 0
6 6 4 3 3 2 2 3 3 3 3 3 4 3 1 0 0 0 0 0 1 2 2 3 3 3 3 2 1 1 1 3 5 6 5 5 3 1 0 0 0 1 1
8 8 6 4 4 3 3 3 3 3 3 3 3 2 1 1 1 0 0 0 1 1 2 4 4 4 3 2 1 1 1 3 5 5 5 4 2 1 0 0 0 0 0
7 7 6 5 4 4 3 3 3 3 3 3 3 2 1 1 1 0 0 0 1 1 3 4 4 3 2 2 1 1 1 3 4 4 3 2 1 0 0 0 0 0 0
4 4 4 4 4 4 3 2 2 2 3 3 3 3 2 1 1 0 0 0 0 1 3 4 3 2 1 2 2 1 1 2 2 2 1 0 0 0 0 0 0 0 0
3 3 3 3 4 4 3 3 2 2 2 2 2 2 2 2 1 0 0 0 0 1 2 2 2 2 1 2 2 1 0 1 1 1 0 0 0 0 0 0 0 0 0
3 3 3 3 4 4 4 3 2 1 1 1 1 1 1 1 1 0 0 0 0 0 1 1 2 2 2 2 1 0 0 0 0 0 0 0 0 0 0 0 0 0 0
Wind_Speed
5 5 5 5 6 6 5 5 4 4 4 4 4 5 5 5 5 4 4 4 5 4 4 4 4 4 4 4 4 4 4 4 5 3 2 2 3 3 2 3 3 5 5
5 5 5 5 5 5 5 5 5 4 4 4 4 4 5 5 5 5 5 5 5 5 5 4 4 4 5 5 4 5 4 4 5 5 3 3 4 4 3 4 4 3 3
5 5 5 5 5 5 5 5 5 4 4 4 4 4 5 5 5 6 5 5 5 5 5 5 5 5 5 4 5 5 4 4 5 5 4 2 3 3 4 4 4 3 4
4 4 4 5 5 5 5 5 5 4 4 4 4 4 4 5 5 5 5 5 5 5 5 5 5 5 5 5 5 5 5 5 5 5 4 4 3 3 4 4 3 3 3
3 3 3 3 4 4 4 4 4 4 4 4 4 4 4 4 4 4 5 5 5 5 5 5 5 5 4 5 5 5 5 5 5 5 5 4 3 3 3 3 3 3 3
2 2 2 2 3 3 4 4 4 4 4 4 4 4 4 3 1 2 4 5 5 5 5 5 5 5 5 6 6 5 5 6 6 5 5 4 4 4 3 4 4 3 3
2 2 2 2 3 3 3 3 3 3 4 4 4 4 4 3 2 3 4 5 5 5 5 5 5 3 5 5 6 7 7 7 7 7 7 6 5 4 4 5 4 4 4
1 1 2 2 2 3 3 3 3 3 3 3 4 4 4 3 3 4 5 7 5 5 5 5 4 4 3 4 5 5 6 6 7 7 6 6 5 4 5 6 5 5 6
2 2 2 2 2 3 3 3 3 3 3 3 3 4 4 3 3 4 5 6 4 5 5 4 5 4 2 3 5 5 5 4 3 4 4 4 3 4 5 5 6 5 5
2 2 2 3 3 3 3 3 2 3 3 3 3 3 4 3 3 4 6 5 4 4 4 4 3 3 3 4 5 5 5 4 3 3 4 5 6 6 8 8 7 6 5
2 2 2 2 3 3 3 3 3 3 2 2 2 2 3 3 3 4 5 5 4 4 3 3 2 4 3 4 6 5 4 4 5 5 4 4 5 5 6 6 6 6 6
2 2 2 2 3 3 3 3 3 3 3 3 3 3 2 2 1 3 4 5 5 4 3 2 1 4 4 5 5 3 4 5 5 4 4 4 4 4 4 5 5 6 6
2 2 2 2 2 2 3 3 3 3 3 2 2 2 2 2 2 3 5 5 6 4 2 1 2 4 5 5 6 6 6 5 4 4 4 3 3 3 4 4 5 5 6
2 2 2 3 2 2 2 2 2 2 2 2 2 2 2 2 1 1 2 3 4 4 3 2 5 6 6 4 4 6 5 4 4 4 3 3 2 3 4 4 4 5 5
3 3 3 3 2 2 2 1 2 1 1 2 2 2 2 2 1 2 2 2 2 2 2 3 2 2 3 3 3 3 3 3 3 3 3 3 3 4 4 3 4 5 5
3 3 3 2 2 2 2 2 2 1 3 1 1 3 1 1 0 1 1 2 2 2 3 2 2 2 2 3 3 3 3 3 3 4 4 3 3 4 3 3 4 5 5
3 3 2 2 2 2 2 2 2 3 4 3 3 2 2 1 0 1 1 2 2 3 3 2 2 2 2 2 2 2 3 3 3 4 4 4 4 4 4 4 4 4 4
4 3 3 3 2 2 2 2 2 2 2 2 3 3 3 2 2 2 2 2 2 2 3 2 2 2 2 2 3 3 3 3 3 3 4 4 4 4 4 4 4 4 4
4 3 3 3 3 2 2 2 2 2 2 1 1 2 3 3 3 3 3 2 1 1 2 2 2 2 2 3 3 3 4 3 3 4 4 4 4 4 4 4 4 4 5
3 3 4 4 3 3 2 2 2 2 2 1 1 1 2 2 1 1 1 2 2 2 2 2 3 3 3 3 4 4 4 3 3 4 3 3 3 4 4 5 5 4 4
3 3 5 4 3 2 3 3 2 2 1 1 1 1 1 2 1 1 1 2 2 3 3 3 3 3 3 3 4 4 5 4 3 3 4 4 3 4 4 4 4 4 4
3 3 3 3 2 2 2 2 2 2 1 2 1 2 3 3 2 1 2 2 3 3 3 3 4 3 3 3 4 4 5 4 4 4 4 4 3 4 4 4 4 3 4
2 2 2 2 2 2 3 3 2 2 2 2 1 1 1 1 2 2 2 2 2 2 2 2 3 3 3 3 4 4 4 4 4 4 4 4 3 3 3 3 4 4 3
1 1 1 1 2 2 2 2 2 1 1 1 1 1 1 1 2 2 2 2 2 2 2 2 2 4 4 4 3 3 3 4 6 5 6 5 4 4 3 3 4 4 4
0 0 1 1 2 2 2 2 2 2 2 1 1 1 1 1 2 2 2 2 3 2 3 3 2 3 4 5 4 4 4 4 4 5 5 4 4 4 4 4 3 3 3
1 1 1 1 1 2 1 1 1 2 2 2 1 2 2 2 2 2 2 2 2 3 3 3 4 4 4 3 4 4 3 3 3 5 5 4 4 4 4 4 5 4 4
Wind_Direction
182 184 186 185 192 195 195 198 198 202 198 208 213 211 205 205 206 212 218 209 213 218 221 216 225 248 249 245 241 244 247 253 256 254 242 213 226 257 238 250 233 228 195
178 177 179 187 191 192 195 198 197 198 200 203 212 213 208 207 208 211 214 213 213 215 219 219 224 227 234 249 249 247 247 254 254 255 250 229 220 232 235 251 248 240 237
174 173 176 190 193 192 199 197 195 195 204 212 211 218 219 214 210 210 214 215 217 221 225 228 230 233 236 239 245 248 243 237 243 249 250 244 236 231 234 236 239 247 247
167 172 175 187 193 195 198 196 196 197 203 215 219 221 223 222 219 215 215 219 222 228 233 236 237 235 238 240 236 240 245 246 239 245 246 241 238 227 240 240 234 224 243
167 171 178 182 185 188 195 201 201 205 206 211 222 224 221 221 227 232 225 221 225 230 234 238 239 237 247 254 254 241 237 241 238 239 241 243 241 237 244 250 253 245 239
168 176 175 189 195 193 199 204 206 211 214 214 222 224 226 228 166 271 267 242 229 231 236 240 236 223 222 230 244 252 256 247 252 253 251 253 254 252 261 260 260 251 252
180 188 196 204 210 204 207 209 214 218 218 223 226 226 226 219 195 223 253 256 240 237 240 245 251 236 231 237 218 219 232 239 246 259 262 263 257 251 253 253 255 269 280
184 198 211 212 222 209 206 209 217 219 222 230 233 233 227 212 195 223 247 244 241 237 235 237 243 249 255 263 246 233 233 228 228 235 250 259 261 261 248 256 259 254 253
204 215 217 210 223 213 217 218 222 218 220 228 229 228 230 216 197 219 247 242 234 236 233 230 237 235 223 259 250 243 239 238 217 215 245 252 261 250 250 250 246 249 255
226 222 218 212 222 221 218 227 228 225 226 231 233 238 237 235 197 213 241 245 234 234 222 211 205 240 211 224 245 243 240 245 249 226 223 227 230 227 223 237 252 257 261
236 232 215 213 226 226 216 222 226 228 223 227 230 240 240 238 195 202 233 249 247 244 237 230 188 171 206 226 250 254 256 264 254 245 236 232 228 226 224 225 240 255 263
225 223 223 226 234 213 207 215 218 223 217 215 215 233 232 220 210 198 217 240 278 259 254 257 209 170 205 225 235 240 251 251 249 249 245 241 240 236 232 235 235 244 257
227 222 226 238 235 214 215 215 211 215 228 232 224 224 224 216 178 194 209 229 260 270 273 269 251 221 225 225 212 216 230 241 244 243 246 252 253 253 245 231 227 227 238
223 226 233 231 214 195 225 223 226 221 226 238 247 243 236 225 211 204 213 219 234 242 245 203 208 220 231 235 217 215 228 240 248 250 251 260 263 246 239 238 232 226 233
222 224 234 227 205 199 212 232 232 217 271 264 269 261 255 245 264 296 277 263 272 287 275 244 229 214 220 218 225 222 225 229 236 249 251 248 248 246 244 238 240 241 245
225 225 224 221 203 212 201 185 134 169 145 168 297 292 280 7 309 238 257 278 275 252 251 237 236 234 239 239 236 235 238 239 242 239 242 244 248 251 249 242 241 244 248
237 239 237 230 214 217 221 221 198 174 166 182 208 226 249 258 218 233 251 251 223 208 229 242 252 254 252 256 259 256 252 248 250 249 249 248 248 248 247 244 243 248 254
240 226 231 234 233 225 224 228 226 218 200 193 185 189 202 196 204 213 222 222 210 207 247 257 262 269 269 269 267 266 264 260 254 254 251 251 248 248 247 245 245 251 256
242 236 231 234 228 223 228 230 227 219 221 209 174 156 183 186 193 204 207 242 267 267 273 287 291 293 288 278 274 269 267 263 262 260 257 253 250 250 251 251 250 242 252
225 210 239 238 224 220 227 235 233 227 218 200 206 176 138 179 195 163 208 267 280 284 284 285 287 289 286 281 275 269 263 260 259 260 258 253 254 257 255 256 255 250 245
234 196 203 232 228 225 234 236 237 237 225 218 218 99 101 244 237 226 236 259 277 287 292 289 283 276 273 275 276 273 270 266 264 269 269 258 251 250 253 256 257 257 256
243 236 223 229 230 216 235 243 244 242 240 240 238 148 157 240 269 266 246 256 269 277 287 289 291 290 284 279 280 282 278 276 273 270 273 270 264 258 257 255 256 261 260
241 243 240 227 223 197 222 237 241 242 247 254 263 277 177 275 294 300 303 298 293 292 293 294 298 305 311 302 297 296 302 303 294 288 283 275 267 262 264 263 261 261 263
252 250 240 236 238 241 240 245 246 253 261 267 277 287 294 275 282 295 297 301 303 298 293 294 302 310 316 314 306 301 309 318 311 298 291 286 279 271 264 262 260 256 253
289 320 260 243 245 246 250 258 260 261 269 275 278 279 283 285 290 295 298 307 310 313 317 311 307 306 309 309 312 323 353 347 325 312 291 279 279 280 276 268 263 265 263
296 293 275 259 245 240 239 254 268 267 260 257 265 278 286 289 293 297 299 305 305 304 307 312 320 318 318 315 328 350 7 348 328 316 300 289 283 281 283 276 269 262 258